Météo

Actualisé à 7h00, Lille

icon

T : 16 °C / H : 83 %
Pression : 1012 Hpa
Vent de nord-est : 9 Km/h

Nuages épars à 4300 pieds
Nuages épars à 4900 pieds

2024/06/18 06:00 LFQQ 180600Z AUTO 05005KT 9999 SCT043/// SCT049/// OVC064/// ///CB 16/13 Q1012 TEMPO 3000 SHRA

Mots clés

Internet web infographiste flyers illustrateur graphiste webmaster PAO assistance informatique logo image invitation affiche création réalisation conception site vitrine voeux carte visite publication publicité impression plaquette charte graphique identité visuelle maintenance freelance


CSS Valide ! Valid HTML 5.0

Bienvenue

Ce site a été réalisé afin de vous faire découvrir mon métier, mes compétences, mon savoir-faire et bien entendu mes services. Vous s'y trouverez également une selection de logiciels et de liens divers et variés.



Infographiste - Web Designer

Je réalise votre logo - votre charte graphique.
Je peux également réaliser votre affiche - flyer - plaquette commerciale - catalogue publicitaire - espace pub - carte d'invitation - carte de visite - carte de fidélité - pochette cd-room ou encore votre présentation cd-room - site internet - maquette d'objet publicitaire.

Si mes services vous intéressent n'hésitez pas à me contacter.